This demonstration page uses our WeatherBlox Daily Observations layout. Learn more.

Left ArrowRight Arrow

44.8408, -93.29828

Hourly Observations for March 12, 2022

Temp ( °F °C ) Dew Point ( °F °C ) Humidity (%) Winds ( mph kmh ) Pressure ( in mb ) Visibility ( mi km ) Precip ( " mm )
12:53 am 00:53 Clear 2 -16.7 -8 -22.2 63 63 WNW 9 15 30.32 1027 10 16 0.00 0.00
1:53 am 01:53 Clear 2 -16.7 -8 -22.2 63 63 WNW 10 17 30.32 1027 10 16 0.00 0.00
2:53 am 02:53 Clear 1 -17.2 -7 -21.7 68 68 WNW 7 11 30.31 1026 10 16 0.00 0.00
3:53 am 03:53 Clear 0 -17.8 -8 -22.2 69 69 NW 9 15 30.31 1026 10 16 0.00 0.00
4:53 am 04:53 Clear 0 -17.8 -9 -22.8 65 65 NW 8 13 30.32 1027 10 16 0.00 0.00
5:53 am 05:53 Clear -1 -18.3 -9 -22.8 68 68 WNW 6 9 30.33 1027 10 16 0.00 0.00
6:53 am 06:53 Sunny -1 -18.3 -9 -22.8 68 68 WNW 7 11 30.34 1027 10 16 0.00 0.00
7:53 am 07:53 Sunny 2 -16.7 -7 -21.7 65 65 NW 7 11 30.34 1027 10 16 0.00 0.00
8:53 am 08:53 Sunny 4 -15.6 -7 -21.7 60 60 WSW 3 6 30.32 1027 10 16 0.00 0.00
9:53 am 09:53 Mostly Sunny 5 -15 -9 -22.8 52 52 SSW 6 9 30.30 1026 10 16 0.00 0.00
10:53 am 10:53 Mostly Sunny 9 -12.8 -8 -22.2 46 46 SW 6 9 30.28 1025 10 16 0.00 0.00
11:53 am 11:53 Mostly Sunny 11 -11.7 -6 -21.1 46 46 VRB 6 9 30.24 1024 10 16 0.00 0.00
12:53 pm 12:53 Mostly Sunny 15 -9.4 -4 -20 42 42 SSW 8 13 30.18 1022 10 16 0.00 0.00
1:53 pm 13:53 Partly Cloudy 18 -7.8 -2 -18.9 41 41 S 9 15 30.13 1020 10 16 0.00 0.00
2:53 pm 14:53 Mostly Sunny 21 -6.1 1 -17.2 41 41 SSW 10 17 30.08 1019 10 16 0.00 0.00
3:53 pm 15:53 Mostly Cloudy 23 -5 1 -17.2 38 38 S 13 20 30.04 1017 10 16 0.00 0.00
4:53 pm 16:53 Cloudy 24 -4.4 4 -15.6 42 42 S 15 24 30.00 1016 10 16 0.00 0.00
5:53 pm 17:53 Cloudy 25 -3.9 6 -14.4 44 44 S 12 19 29.95 1014 10 16 0.00 0.00
6:53 pm 18:53 Cloudy 27 -2.8 7 -13.9 43 43 S 9 15 29.91 1013 10 16 0.00 0.00
7:53 pm 19:53 Cloudy 28 -2.2 8 -13.3 43 43 S 12 19 29.88 1012 10 16 0.00 0.00
8:53 pm 20:53 Mostly Cloudy 29 -1.7 9 -12.8 43 43 S 12 19 29.83 1010 10 16 0.00 0.00
9:53 pm 21:53 Mostly Cloudy 30 -1.1 9 -12.8 41 41 SSW 13 20 29.80 1009 10 16 0.00 0.00
10:53 pm 22:53 Cloudy 29 -1.7 11 -11.7 47 47 SSW 14 22 29.77 1008 10 16 0.00 0.00
11:53 pm 23:53 Cloudy 29 -1.7 12 -11.1 49 49 SSW 12 19 29.74 1007 10 16 0.00 0.00

Powered by AerisWeather